Location: Trebic
(49.2170°N, 15.8830°E)
Time: 22:01:04
(UTC+01:00)

Transit 4A - Pass Details

Date: 02 November 2020
Orbit: 862 x 982 km, 66.8° (Epoch: 30 November)

Event Time Altitude Azimuth Distance (km) Brightness Sun altitude
Rises 20:43:23 0° 323° (NW) 3,695 11.8 -40.5°
Reaches altitude 10° 20:46:17 10° 333° (NNW) 2,746 10.8 -40.9°
Enters shadow 20:48:27 20° 347° (NNW) 2,128 10.0 -41.2°
